Time,TemperatureF,DewpointF,PressureIn,WindDirection,WindDirectionDegrees,WindSpeedMPH,WindSpeedGustMPH,Humidity,HourlyPrecipIn,Conditions,Clouds,dailyrainin,SolarRadiationWatts/m^2,SoftwareType,DateUTC
2013-07-08 00:01:00,78.5,65.8,29.95,ESE,109,0.0,0.0,65,0.00,CLR,,0.00,0.0,WeatherDisplay:10.37,2013-07-08 05:01:00,
2013-07-08 00:06:00,78.2,65.9,29.95,ESE,109,0.8,4.6,66,0.00,CLR,,0.00,0.0,WeatherDisplay:10.37,2013-07-08 05:06:00,
2013-07-08 00:11:00,78.2,65.9,29.95,ESE,109,0.0,1.1,66,0.00,CLR,,0.00,0.0,WeatherDisplay:10.37,2013-07-08 05:11:00,
2013-07-08 00:16:00,78.0,65.7,29.95,ESE,109,0.9,2.0,66,0.00,CLR,,0.00,0.0,WeatherDisplay:10.37,2013-07-08 05:16:00,
2013-07-08 00:21:00,78.1,65.8,29.95,ESE,109,0.0,1.1,66,0.00,CLR,,0.00,0.0,WeatherDisplay:10.37,2013-07-08 05:21:00,
2013-07-08 00:26:00,78.1,66.2,29.95,ESE,109,0.1,1.1,67,0.00,CLR,,0.00,0.0,WeatherDisplay:10.37,2013-07-08 05:26:00,
2013-07-08 00:31:00,78.0,66.2,29.95,ESE,109,0.3,3.5,67,0.00,CLR,,0.00,0.0,WeatherDisplay:10.37,2013-07-08 05:31:00,
2013-07-08 00:36:00,78.1,66.2,29.95,ESE,109,0.0,4.6,67,0.00,CLR,,0.00,0.0,WeatherDisplay:10.37,2013-07-08 05:36:00,
2013-07-08 00:41:00,77.9,66.5,29.95,ESE,109,0.1,0.0,68,0.00,CLR,,0.00,0.0,WeatherDisplay:10.37,2013-07-08 05:41:00,
2013-07-08 00:46:00,77.8,66.4,29.95,ESE,109,1.1,1.1,68,0.00,CLR,,0.00,0.0,WeatherDisplay:10.37,2013-07-08 05:46:00,
2013-07-08 00:51:00,77.8,66.8,29.95,ESE,109,0.3,3.5,69,0.00,CLR,,0.00,0.0,WeatherDisplay:10.37,2013-07-08 05:51:00,
2013-07-08 00:56:00,77.8,66.8,29.95,ESE,109,0.4,3.5,69,0.00,CLR,,0.00,0.0,WeatherDisplay:10.37,2013-07-08 05:56:00,
2013-07-08 01:01:00,77.7,66.7,29.95,ESE,109,0.5,3.5,69,0.00,CLR,,0.00,0.0,WeatherDisplay:10.37,2013-07-08 06:01:00,
2013-07-08 01:06:00,77.9,66.9,29.95,ESE,109,0.8,2.3,69,0.00,CLR,,0.00,0.0,WeatherDisplay:10.37,2013-07-08 06:06:00,
2013-07-08 01:11:00,77.8,67.2,29.95,ESE,109,0.4,1.1,70,0.00,CLR,,0.00,0.0,WeatherDisplay:10.37,2013-07-08 06:11:00,
2013-07-08 01:16:00,77.5,66.9,29.95,ESE,109,0.2,2.0,70,0.00,CLR,,0.00,0.0,WeatherDisplay:10.37,2013-07-08 06:16:00,
2013-07-08 01:21:00,77.4,66.8,29.95,ESE,109,0.5,2.3,70,0.00,CLR,,0.00,0.0,WeatherDisplay:10.37,2013-07-08 06:21:00,
2013-07-08 01:26:00,77.3,67.2,29.95,ESE,109,0.7,2.3,71,0.00,CLR,,0.00,0.0,WeatherDisplay:10.37,2013-07-08 06:26:00,
2013-07-08 01:31:00,77.2,67.5,29.95,ESE,109,0.8,3.5,72,0.00,CLR,,0.00,0.0,WeatherDisplay:10.37,2013-07-08 06:31:00,
2013-07-08 01:36:00,77.4,67.3,29.95,ESE,109,1.6,5.8,71,0.00,CLR,,0.00,0.0,WeatherDisplay:10.37,2013-07-08 06:36:00,
2013-07-08 01:41:00,77.5,67.4,29.95,ESE,109,1.8,4.6,71,0.00,CLR,,0.00,0.0,WeatherDisplay:10.37,2013-07-08 06:41:00,
2013-07-08 01:46:00,77.4,67.7,29.95,ESE,109,1.9,3.5,72,0.00,CLR,,0.00,0.0,WeatherDisplay:10.37,2013-07-08 06:46:00,
2013-07-08 01:51:00,77.3,67.6,29.95,ESE,109,0.6,0.0,72,0.00,CLR,,0.00,0.0,WeatherDisplay:10.37,2013-07-08 06:51:00,
2013-07-08 01:56:00,77.3,67.6,29.95,ESE,109,1.4,3.5,72,0.00,CLR,,0.00,0.0,WeatherDisplay:10.37,2013-07-08 06:56:00,
2013-07-08 02:01:00,77.2,67.9,29.95,ESE,109,1.5,3.5,73,0.00,CLR,,0.00,0.0,WeatherDisplay:10.37,2013-07-08 07:01:00,
2013-07-08 02:06:00,77.3,68.0,29.95,ESE,110,1.4,2.3,73,0.00,CLR,,0.00,0.0,WeatherDisplay:10.37,2013-07-08 07:06:00,
2013-07-08 02:11:00,77.2,67.9,29.95,ESE,111,0.7,2.3,73,0.00,CLR,,0.00,0.0,WeatherDisplay:10.37,2013-07-08 07:11:00,
2013-07-08 02:16:00,76.9,68.0,29.95,ESE,112,1.9,4.6,74,0.00,CLR,,0.00,0.0,WeatherDisplay:10.37,2013-07-08 07:16:00,
2013-07-08 02:21:00,76.8,67.9,29.95,ESE,112,0.8,4.6,74,0.00,CLR,,0.00,0.0,WeatherDisplay:10.37,2013-07-08 07:21:00,
2013-07-08 02:26:00,76.8,68.3,29.95,ESE,112,1.1,4.6,75,0.00,CLR,,0.00,0.0,WeatherDisplay:10.37,2013-07-08 07:26:00,
2013-07-08 02:31:00,76.7,68.2,29.95,ESE,114,2.4,5.8,75,0.00,CLR,,0.00,0.0,WeatherDisplay:10.37,2013-07-08 07:31:00,
2013-07-08 02:36:00,76.6,68.1,29.95,ESE,114,2.2,5.8,75,0.00,CLR,,0.00,0.0,WeatherDisplay:10.37,2013-07-08 07:36:00,
2013-07-08 02:41:00,76.7,68.6,29.95,ESE,114,0.0,3.5,76,0.00,CLR,,0.00,0.0,WeatherDisplay:10.37,2013-07-08 07:41:00,
2013-07-08 02:46:00,76.5,68.4,29.95,ESE,114,0.9,2.3,76,0.00,CLR,,0.00,0.0,WeatherDisplay:10.37,2013-07-08 07:46:00,
2013-07-08 02:51:00,76.4,68.7,29.95,ESE,114,0.9,2.3,77,0.00,CLR,,0.00,0.0,WeatherDisplay:10.37,2013-07-08 07:51:00,
2013-07-08 02:56:00,76.2,68.5,29.95,ESE,114,0.8,1.1,77,0.00,CLR,,0.00,0.0,WeatherDisplay:10.37,2013-07-08 07:56:00,
2013-07-08 03:01:00,76.1,68.7,29.95,ESE,114,0.0,1.1,78,0.00,CLR,,0.00,0.0,WeatherDisplay:10.37,2013-07-08 08:01:00,
2013-07-08 03:06:00,76.0,68.6,29.95,ESE,114,0.1,0.0,78,0.00,CLR,,0.00,0.0,WeatherDisplay:10.37,2013-07-08 08:06:00,
2013-07-08 03:11:00,75.9,68.9,29.95,ESE,114,0.0,1.1,79,0.00,CLR,,0.00,0.0,WeatherDisplay:10.37,2013-07-08 08:11:00,
2013-07-08 03:16:00,75.9,68.9,29.95,ESE,114,0.2,2.0,79,0.00,CLR,,0.00,0.0,WeatherDisplay:10.37,2013-07-08 08:16:00,
2013-07-08 03:21:00,75.8,68.8,29.95,ESE,114,0.9,2.3,79,0.00,CLR,,0.00,0.0,WeatherDisplay:10.37,2013-07-08 08:21:00,
2013-07-08 03:26:00,75.7,69.1,29.96,ESE,114,0.2,1.0,80,0.00,CLR,,0.00,0.0,WeatherDisplay:10.37,2013-07-08 08:26:00,
2013-07-08 03:31:00,75.6,69.0,29.96,ESE,114,0.0,0.0,80,0.00,CLR,,0.00,0.0,WeatherDisplay:10.37,2013-07-08 08:31:00,
2013-07-08 03:36:00,75.6,69.4,29.96,ESE,114,0.4,1.1,81,0.00,CLR,,0.00,0.0,WeatherDisplay:10.37,2013-07-08 08:36:00,
2013-07-08 03:41:00,75.5,69.3,29.95,ESE,114,0.8,2.3,81,0.00,CLR,,0.00,0.0,WeatherDisplay:10.37,2013-07-08 08:41:00,
2013-07-08 03:46:00,75.5,69.3,29.96,ESE,114,0.3,1.1,81,0.00,CLR,,0.00,0.0,WeatherDisplay:10.37,2013-07-08 08:46:00,
2013-07-08 03:51:00,75.6,69.7,29.96,ESE,114,0.7,2.3,82,0.00,CLR,,0.00,0.0,WeatherDisplay:10.37,2013-07-08 08:51:00,
2013-07-08 03:56:00,75.8,69.9,29.96,ESE,114,0.2,1.1,82,0.00,CLR,,0.00,0.0,WeatherDisplay:10.37,2013-07-08 08:56:00,
2013-07-08 04:01:00,75.6,69.7,29.96,ESE,114,0.1,0.0,82,0.00,CLR,,0.00,0.0,WeatherDisplay:10.37,2013-07-08 09:01:00,
2013-07-08 04:06:00,75.5,69.6,29.96,ESE,114,0.5,3.5,82,0.00,CLR,,0.00,0.0,WeatherDisplay:10.37,2013-07-08 09:06:00,
2013-07-08 04:11:00,75.5,69.6,29.96,ESE,114,0.9,3.5,82,0.00,CLR,,0.00,0.0,WeatherDisplay:10.37,2013-07-08 09:11:00,
2013-07-08 04:16:00,75.3,69.8,29.96,ESE,114,0.6,1.1,83,0.00,CLR,,0.00,0.0,WeatherDisplay:10.37,2013-07-08 09:16:00,
2013-07-08 04:21:00,75.3,69.8,29.96,ESE,114,0.3,1.1,83,0.00,CLR,,0.00,0.0,WeatherDisplay:10.37,2013-07-08 09:21:00,
2013-07-08 04:26:00,75.3,69.8,29.96,ESE,114,0.1,1.1,83,0.00,CLR,,0.00,0.0,WeatherDisplay:10.37,2013-07-08 09:26:00,
2013-07-08 04:31:00,75.2,70.0,29.97,ESE,114,0.0,3.5,84,0.00,CLR,,0.00,0.0,WeatherDisplay:10.37,2013-07-08 09:31:00,
2013-07-08 04:36:00,75.2,70.0,29.97,ESE,114,0.2,0.0,84,0.00,CLR,,0.00,0.0,WeatherDisplay:10.37,2013-07-08 09:36:00,
2013-07-08 04:41:00,75.3,70.1,29.97,ESE,114,0.4,0.0,84,0.00,CLR,,0.00,0.0,WeatherDisplay:10.37,2013-07-08 09:41:00,
2013-07-08 04:46:00,75.3,70.1,29.97,ESE,114,0.0,1.1,84,0.00,CLR,,0.00,0.0,WeatherDisplay:10.37,2013-07-08 09:46:00,
2013-07-08 04:51:00,74.7,69.5,29.98,ESE,114,0.0,0.0,84,0.00,CLR,,0.00,0.0,WeatherDisplay:10.37,2013-07-08 09:51:00,
2013-07-08 04:56:00,74.2,69.7,29.98,ESE,114,0.0,0.0,86,0.00,CLR,,0.00,0.0,WeatherDisplay:10.37,2013-07-08 09:56:00,
2013-07-08 05:01:00,73.9,69.4,29.98,ESE,114,0.0,0.0,86,0.00,CLR,,0.00,0.0,WeatherDisplay:10.37,2013-07-08 10:01:00,
2013-07-08 05:06:00,73.6,69.5,29.98,ESE,114,0.0,0.0,87,0.00,CLR,,0.00,0.0,WeatherDisplay:10.37,2013-07-08 10:06:00,
2013-07-08 05:11:00,73.5,69.7,29.98,ESE,114,0.0,0.0,88,0.00,CLR,,0.00,0.0,WeatherDisplay:10.37,2013-07-08 10:11:00,
2013-07-08 05:16:00,73.4,69.6,29.98,ESE,114,0.0,0.0,88,0.00,CLR,,0.00,0.0,WeatherDisplay:10.37,2013-07-08 10:16:00,
2013-07-08 05:21:00,73.4,69.6,29.98,ESE,114,0.0,0.0,88,0.00,CLR,,0.00,0.0,WeatherDisplay:10.37,2013-07-08 10:21:00,
2013-07-08 05:26:00,73.2,69.4,29.98,ESE,114,0.0,1.1,88,0.00,CLR,,0.00,0.0,WeatherDisplay:10.37,2013-07-08 10:26:00,
2013-07-08 05:31:00,73.0,69.6,29.99,ESE,114,0.0,0.0,89,0.00,CLR,,0.00,0.0,WeatherDisplay:10.37,2013-07-08 10:31:00,
2013-07-08 05:36:00,72.9,69.5,29.99,ESE,114,0.0,0.0,89,0.00,CLR,,0.00,0.0,WeatherDisplay:10.37,2013-07-08 10:36:00,
2013-07-08 05:41:00,72.8,69.4,29.99,ESE,114,0.0,0.0,89,0.00,CLR,,0.00,0.0,WeatherDisplay:10.37,2013-07-08 10:41:00,
2013-07-08 05:46:00,72.7,69.6,29.99,ESE,114,0.0,0.0,90,0.00,CLR,,0.00,0.0,WeatherDisplay:10.37,2013-07-08 10:46:00,
2013-07-08 05:51:00,72.7,69.6,29.99,ESE,114,0.0,0.0,90,0.00,CLR,,0.00,0.0,WeatherDisplay:10.37,2013-07-08 10:51:00,
2013-07-08 05:56:00,72.7,69.6,29.99,ESE,114,0.0,0.0,90,0.00,CLR,,0.00,0.0,WeatherDisplay:10.37,2013-07-08 10:56:00,
2013-07-08 06:01:00,72.6,69.5,29.99,ESE,114,0.0,0.0,90,0.00,CLR,,0.00,0.0,WeatherDisplay:10.37,2013-07-08 11:01:00,
2013-07-08 06:06:00,72.8,69.7,29.99,ESE,114,0.0,2.3,90,0.00,CLR,,0.00,0.0,WeatherDisplay:10.37,2013-07-08 11:06:00,
2013-07-08 06:11:00,73.3,69.9,29.99,ESE,114,0.0,1.1,89,0.00,CLR,,0.00,0.0,WeatherDisplay:10.37,2013-07-08 11:11:00,
2013-07-08 06:16:00,73.5,70.1,30.00,ESE,114,0.3,1.1,89,0.00,CLR,,0.00,0.0,WeatherDisplay:10.37,2013-07-08 11:16:00,
2013-07-08 06:21:00,73.5,69.7,29.99,ESE,114,0.4,0.0,88,0.00,CLR,,0.00,0.0,WeatherDisplay:10.37,2013-07-08 11:21:00,
2013-07-08 06:26:00,73.4,70.0,30.00,ESE,114,0.5,2.0,89,0.00,CLR,,0.00,0.0,WeatherDisplay:10.37,2013-07-08 11:26:00,
2013-07-08 06:31:00,73.4,69.6,30.00,ESE,114,0.8,2.3,88,0.00,CLR,,0.00,5.5,WeatherDisplay:10.37,2013-07-08 11:31:00,
2013-07-08 06:36:00,73.4,70.0,30.00,ESE,114,0.1,3.5,89,0.00,CLR,,0.00,9.9,WeatherDisplay:10.37,2013-07-08 11:36:00,
2013-07-08 06:41:00,73.4,70.0,30.00,ESE,114,0.0,1.1,89,0.00,CLR,,0.00,12.1,WeatherDisplay:10.37,2013-07-08 11:41:00,
2013-07-08 06:46:00,73.4,70.0,30.00,ESE,114,0.0,0.0,89,0.00,CLR,,0.00,15.4,WeatherDisplay:10.37,2013-07-08 11:46:00,
2013-07-08 06:51:00,73.5,70.1,30.00,ESE,114,0.3,2.3,89,0.00,CLR,,0.00,17.6,WeatherDisplay:10.37,2013-07-08 11:51:00,
2013-07-08 06:56:00,73.5,70.1,30.00,ESE,114,0.7,2.3,89,0.00,CLR,,0.00,20.9,WeatherDisplay:10.37,2013-07-08 11:56:00,
2013-07-08 07:01:00,73.7,70.3,30.01,ESE,114,0.4,2.3,89,0.00,CLR,,0.00,23.1,WeatherDisplay:10.37,2013-07-08 12:01:00,
2013-07-08 07:06:00,73.9,70.5,30.00,ESE,114,0.4,1.1,89,0.00,CLR,,0.00,27.5,WeatherDisplay:10.37,2013-07-08 12:06:00,
2013-07-08 07:12:00,74.4,70.6,30.01,ESE,114,1.1,2.3,88,0.00,CLR,,0.00,28.6,WeatherDisplay:10.37,2013-07-08 12:12:00,
2013-07-08 07:17:00,74.7,70.9,30.01,ESE,114,1.2,5.8,88,0.00,CLR,,0.00,30.8,WeatherDisplay:10.37,2013-07-08 12:17:00,
2013-07-08 07:22:00,75.2,71.1,30.01,ESE,114,0.4,2.3,87,0.00,CLR,,0.00,36.3,WeatherDisplay:10.37,2013-07-08 12:22:00,
2013-07-08 07:27:00,75.5,71.0,30.01,SE,145,0.3,8.1,86,0.00,CLR,,0.00,38.5,WeatherDisplay:10.37,2013-07-08 12:27:00,
2013-07-08 07:32:00,75.9,71.4,30.01,SSE,152,0.3,5.0,86,0.00,CLR,,0.00,46.2,WeatherDisplay:10.37,2013-07-08 12:32:00,
2013-07-08 07:37:00,76.2,71.4,30.01,SE,143,0.9,6.9,85,0.00,CLR,,0.00,53.9,WeatherDisplay:10.37,2013-07-08 12:37:00,
2013-07-08 07:42:00,76.5,71.7,30.02,SE,143,1.0,5.8,85,0.00,CLR,,0.00,61.6,WeatherDisplay:10.37,2013-07-08 12:42:00,
2013-07-08 07:47:00,76.7,71.5,30.01,SSE,151,0.6,2.3,84,0.00,CLR,,0.00,50.6,WeatherDisplay:10.37,2013-07-08 12:47:00,
2013-07-08 07:52:00,77.0,71.8,30.01,SSE,155,5.4,5.8,84,0.00,CLR,,0.00,117.7,WeatherDisplay:10.37,2013-07-08 12:52:00,
2013-07-08 07:57:00,77.0,71.8,30.01,SSE,151,1.0,9.2,84,0.00,CLR,,0.00,53.9,WeatherDisplay:10.37,2013-07-08 12:57:00,
2013-07-08 08:02:00,77.4,71.8,30.02,SSE,148,3.2,9.2,83,0.00,CLR,,0.00,56.1,WeatherDisplay:10.37,2013-07-08 13:02:00,
2013-07-08 08:07:00,77.5,71.9,30.02,SSE,151,4.2,8.1,83,0.00,CLR,,0.00,53.9,WeatherDisplay:10.37,2013-07-08 13:07:00,
2013-07-08 08:12:00,77.5,71.9,30.02,SSE,154,4.6,8.1,83,0.00,CLR,,0.00,71.5,WeatherDisplay:10.37,2013-07-08 13:12:00,
2013-07-08 08:17:00,77.7,72.1,30.02,SSE,154,0.8,4.0,83,0.00,CLR,,0.00,84.7,WeatherDisplay:10.37,2013-07-08 13:17:00,
2013-07-08 08:22:00,78.0,72.1,30.02,SSE,157,4.2,6.9,82,0.00,CLR,,0.00,106.7,WeatherDisplay:10.37,2013-07-08 13:22:00,
2013-07-08 08:27:00,78.2,71.9,30.03,SSE,157,2.9,9.2,81,0.00,CLR,,0.00,102.3,WeatherDisplay:10.37,2013-07-08 13:27:00,
2013-07-08 08:32:00,78.3,72.0,30.03,SSE,152,4.1,8.1,81,0.00,CLR,,0.00,69.3,WeatherDisplay:10.37,2013-07-08 13:32:00,
2013-07-08 08:37:00,78.6,72.3,30.03,South,172,4.0,8.1,81,0.00,CLR,,0.00,69.3,WeatherDisplay:10.37,2013-07-08 13:37:00,
2013-07-08 08:42:00,79.0,72.7,30.03,South,182,4.1,8.1,81,0.00,CLR,,0.00,71.5,WeatherDisplay:10.37,2013-07-08 13:42:00,
2013-07-08 08:47:00,79.0,72.3,30.03,SSE,157,1.6,4.6,80,0.00,CLR,,0.00,209.0,WeatherDisplay:10.37,2013-07-08 13:47:00,
2013-07-08 08:52:00,79.3,72.6,30.03,SSE,151,4.4,6.9,80,0.00,CLR,,0.00,367.4,WeatherDisplay:10.37,2013-07-08 13:52:00,
2013-07-08 08:57:00,80.0,72.9,30.03,SSE,148,0.9,2.3,79,0.00,CLR,,0.00,385.0,WeatherDisplay:10.37,2013-07-08 13:57:00,
2013-07-08 09:02:00,80.4,72.9,30.04,SSE,148,2.1,4.0,78,0.00,CLR,,0.00,405.9,WeatherDisplay:10.37,2013-07-08 14:02:00,
2013-07-08 09:07:00,80.7,73.2,30.04,South,174,1.3,2.3,78,0.00,CLR,,0.00,419.1,WeatherDisplay:10.37,2013-07-08 14:07:00,
2013-07-08 09:12:00,80.7,73.2,30.04,SSE,159,1.5,4.6,78,0.00,CLR,,0.00,441.1,WeatherDisplay:10.37,2013-07-08 14:12:00,
2013-07-08 09:17:00,81.3,73.8,30.04,SSE,151,5.9,9.2,78,0.00,CLR,,0.00,446.6,WeatherDisplay:10.37,2013-07-08 14:17:00,
2013-07-08 09:22:00,81.6,73.7,30.04,SSE,152,3.0,6.9,77,0.00,CLR,,0.00,454.3,WeatherDisplay:10.37,2013-07-08 14:22:00,
2013-07-08 09:27:00,82.2,73.5,30.04,SSW,196,6.6,11.5,75,0.00,CLR,,0.00,492.8,WeatherDisplay:10.37,2013-07-08 14:27:00,
2013-07-08 09:32:00,82.9,73.8,30.04,SSW,199,3.6,11.5,74,0.00,CLR,,0.00,514.8,WeatherDisplay:10.37,2013-07-08 14:32:00,
2013-07-08 09:37:00,83.4,74.2,30.04,SSW,203,8.9,12.7,74,0.00,CLR,,0.00,539.0,WeatherDisplay:10.37,2013-07-08 14:37:00,
2013-07-08 09:42:00,83.3,73.7,30.04,SSW,210,9.2,11.5,73,0.00,CLR,,0.00,477.4,WeatherDisplay:10.37,2013-07-08 14:42:00,
2013-07-08 09:47:00,83.3,73.7,30.04,South,185,4.9,6.9,73,0.00,CLR,,0.00,469.7,WeatherDisplay:10.37,2013-07-08 14:47:00,
2013-07-08 09:52:00,83.2,73.6,30.04,SSW,193,4.6,10.4,73,0.00,CLR,,0.00,474.1,WeatherDisplay:10.37,2013-07-08 14:52:00,
2013-07-08 09:57:00,83.6,74.0,30.03,SSW,201,5.7,9.2,73,0.00,CLR,,0.00,563.2,WeatherDisplay:10.37,2013-07-08 14:57:00,
2013-07-08 10:02:00,84.4,74.0,30.03,South,186,5.6,8.1,71,0.00,CLR,,0.00,595.1,WeatherDisplay:10.37,2013-07-08 15:02:00,
2013-07-08 10:07:00,84.7,74.7,30.03,South,176,2.1,6.0,72,0.00,CLR,,0.00,570.9,WeatherDisplay:10.37,2013-07-08 15:07:00,
2013-07-08 10:12:00,84.5,74.5,30.03,SSE,165,2.2,5.0,72,0.00,CLR,,0.00,456.5,WeatherDisplay:10.37,2013-07-08 15:12:00,
2013-07-08 10:17:00,84.7,75.1,30.03,South,181,2.8,4.6,73,0.00,CLR,,0.00,640.2,WeatherDisplay:10.37,2013-07-08 15:17:00,
2013-07-08 10:22:00,85.5,74.6,30.03,SSW,197,8.3,12.7,70,0.00,CLR,,0.00,663.3,WeatherDisplay:10.37,2013-07-08 15:22:00,
2013-07-08 10:27:00,85.5,74.6,30.03,SSE,168,3.6,8.1,70,0.00,CLR,,0.00,640.2,WeatherDisplay:10.37,2013-07-08 15:27:00,
2013-07-08 10:32:00,85.5,74.6,30.03,South,190,5.1,6.0,70,0.00,CLR,,0.00,628.1,WeatherDisplay:10.37,2013-07-08 15:32:00,
2013-07-08 10:37:00,86.0,74.2,30.03,SSW,201,3.6,11.5,68,0.00,CLR,,0.00,699.6,WeatherDisplay:10.37,2013-07-08 15:37:00,
2013-07-08 10:42:00,85.8,74.4,30.03,SSE,148,3.8,9.2,69,0.00,CLR,,0.00,711.7,WeatherDisplay:10.37,2013-07-08 15:42:00,
2013-07-08 10:47:00,85.7,75.2,30.03,SSE,154,5.4,9.2,71,0.00,CLR,,0.00,729.3,WeatherDisplay:10.37,2013-07-08 15:47:00,
2013-07-08 10:52:00,86.3,74.9,30.03,SE,145,5.3,8.1,69,0.00,CLR,,0.00,690.8,WeatherDisplay:10.37,2013-07-08 15:52:00,
2013-07-08 10:57:00,86.7,74.9,30.03,SE,145,4.7,8.1,68,0.00,CLR,,0.00,773.3,WeatherDisplay:10.37,2013-07-08 15:57:00,
2013-07-08 11:02:00,87.0,75.2,30.03,SSE,152,5.0,10.4,68,0.00,CLR,,0.00,858.0,WeatherDisplay:10.37,2013-07-08 16:02:00,
2013-07-08 11:07:00,86.2,74.4,30.03,SSE,152,2.2,5.8,68,0.00,CLR,,0.00,245.3,WeatherDisplay:10.37,2013-07-08 16:07:00,
2013-07-08 11:12:00,86.2,74.4,30.03,SSE,151,5.4,11.5,68,0.00,CLR,,0.00,874.5,WeatherDisplay:10.37,2013-07-08 16:12:00,
2013-07-08 11:17:00,87.6,74.8,30.03,SSE,148,5.3,9.2,66,0.00,SCT,,0.00,837.1,WeatherDisplay:10.37,2013-07-08 16:17:00,
2013-07-08 11:22:00,87.6,75.7,30.03,SE,132,4.2,6.9,68,0.00,SCT,,0.00,947.1,WeatherDisplay:10.37,2013-07-08 16:22:00,
2013-07-08 11:27:00,88.8,75.0,30.03,SSE,147,6.4,11.5,64,0.00,SCT,,0.00,930.6,WeatherDisplay:10.37,2013-07-08 16:27:00,
2013-07-08 11:32:00,89.0,75.2,30.03,SE,131,6.5,11.5,64,0.00,BKN,,0.00,926.2,WeatherDisplay:10.37,2013-07-08 16:32:00,
2013-07-08 11:37:00,89.1,75.8,30.03,SE,141,5.3,10.4,65,0.00,BKN,,0.00,914.1,WeatherDisplay:10.37,2013-07-08 16:37:00,
2013-07-08 11:42:00,89.6,75.8,30.03,SE,137,4.4,8.1,64,0.00,BKN,,0.00,926.2,WeatherDisplay:10.37,2013-07-08 16:42:00,
2013-07-08 11:47:00,89.7,75.4,30.03,SSE,154,3.2,9.2,63,0.00,BKN,,0.00,938.3,WeatherDisplay:10.37,2013-07-08 16:47:00,
2013-07-08 11:52:00,89.1,74.4,30.02,SE,146,3.4,6.9,62,0.00,BKN,,0.00,943.8,WeatherDisplay:10.37,2013-07-08 16:52:00,
2013-07-08 11:57:00,89.2,75.0,30.02,SSE,161,4.6,8.1,63,0.00,BKN,,0.00,1009.8,WeatherDisplay:10.37,2013-07-08 16:57:00,
2013-07-08 12:03:00,89.8,73.6,30.02,SE,138,4.2,9.2,59,0.00,BKN,,0.00,1038.4,WeatherDisplay:10.37,2013-07-08 17:03:00,
2013-07-08 12:08:00,89.8,74.1,30.02,SSW,201,7.5,11.5,60,0.00,BKN,,0.00,1032.9,WeatherDisplay:10.37,2013-07-08 17:08:00,
2013-07-08 12:14:00,90.1,73.8,30.02,SSE,156,3.6,8.1,59,0.00,BKN,,0.00,1092.3,WeatherDisplay:10.37,2013-07-08 17:14:00,
2013-07-08 12:19:00,89.2,73.5,30.03,SSW,203,4.3,8.1,60,0.00,BKN,,0.00,280.5,WeatherDisplay:10.37,2013-07-08 17:19:00,
2013-07-08 12:24:00,88.5,73.8,30.03,SSW,197,5.2,11.5,62,0.00,BKN,,0.00,1071.4,WeatherDisplay:10.37,2013-07-08 17:24:00,
2013-07-08 12:29:00,89.3,73.6,30.02,SSE,156,4.7,8.1,60,0.00,BKN,,0.00,253.0,WeatherDisplay:10.37,2013-07-08 17:29:00,
2013-07-08 12:34:00,88.9,73.7,30.02,SSW,197,5.5,10.0,61,0.00,BKN,,0.00,1056.0,WeatherDisplay:10.37,2013-07-08 17:34:00,
2013-07-08 12:39:00,89.8,73.6,30.02,SSE,154,1.8,9.2,59,0.00,BKN,,0.00,1069.2,WeatherDisplay:10.37,2013-07-08 17:39:00,
2013-07-08 12:44:00,90.6,73.8,30.02,SSE,148,5.0,9.0,58,0.00,BKN,,0.00,1048.3,WeatherDisplay:10.37,2013-07-08 17:44:00,
2013-07-08 12:49:00,90.7,73.4,30.02,SE,137,4.2,9.2,57,0.00,SCT,,0.00,1056.0,WeatherDisplay:10.37,2013-07-08 17:49:00,
2013-07-08 12:54:00,90.5,73.2,30.02,SSW,193,4.3,11.5,57,0.00,SCT,,0.00,1038.4,WeatherDisplay:10.37,2013-07-08 17:54:00,
2013-07-08 13:00:00,91.5,74.1,30.02,SE,128,4.2,9.2,57,0.00,SCT,,0.00,301.4,WeatherDisplay:10.37,2013-07-08 18:00:00,
2013-07-08 13:05:00,92.2,74.8,30.02,SE,137,0.2,3.5,57,0.00,SCT,,0.00,959.2,WeatherDisplay:10.37,2013-07-08 18:05:00,
2013-07-08 13:10:00,91.4,74.0,30.02,SE,136,3.7,6.9,57,0.00,SCT,,0.00,1041.7,WeatherDisplay:10.37,2013-07-08 18:10:00,
2013-07-08 13:16:00,91.5,73.1,30.02,SSE,160,3.6,8.0,55,0.00,SCT,,0.00,1122.0,WeatherDisplay:10.37,2013-07-08 18:16:00,
2013-07-08 13:21:00,90.9,73.0,30.02,SSE,149,4.0,7.0,56,0.00,SCT,,0.00,1123.1,WeatherDisplay:10.37,2013-07-08 18:21:00,
2013-07-08 13:26:00,92.2,72.6,30.02,SE,139,5.6,12.7,53,0.00,SCT,,0.00,1092.3,WeatherDisplay:10.37,2013-07-08 18:26:00,
2013-07-08 13:32:00,92.6,73.0,30.01,SSE,159,2.8,8.1,53,0.00,SCT,,0.00,995.5,WeatherDisplay:10.37,2013-07-08 18:32:00,
2013-07-08 13:37:00,91.7,72.7,30.01,South,177,2.6,11.5,54,0.00,SCT,,0.00,1069.2,WeatherDisplay:10.37,2013-07-08 18:37:00,
2013-07-08 13:42:00,91.7,73.2,30.01,SSE,164,2.1,5.0,55,0.00,SCT,,0.00,1082.4,WeatherDisplay:10.37,2013-07-08 18:42:00,
2013-07-08 13:47:00,92.7,74.2,30.01,SSW,195,1.3,10.4,55,0.00,SCT,,0.00,1048.3,WeatherDisplay:10.37,2013-07-08 18:47:00,
2013-07-08 13:53:00,92.8,73.2,30.01,SSW,203,2.1,9.0,53,0.00,SCT,,0.00,1063.7,WeatherDisplay:10.37,2013-07-08 18:53:00,
2013-07-08 13:58:00,94.2,74.4,30.00,SSE,149,4.5,9.2,53,0.00,SCT,,0.00,1056.0,WeatherDisplay:10.37,2013-07-08 18:58:00,
2013-07-08 14:04:00,93.3,72.5,30.00,SE,131,3.3,8.1,51,0.00,SCT,,0.00,1063.7,WeatherDisplay:10.37,2013-07-08 19:04:00,
2013-07-08 14:09:00,93.9,73.0,30.00,SSE,151,3.9,9.2,51,0.00,SCT,,0.00,1114.3,WeatherDisplay:10.37,2013-07-08 19:09:00,
2013-07-08 14:14:00,92.8,72.6,30.00,SE,141,6.6,11.5,52,0.00,SCT,,0.00,1125.3,WeatherDisplay:10.37,2013-07-08 19:14:00,
2013-07-08 14:19:00,93.3,73.0,30.00,SE,142,3.9,5.8,52,0.00,CLR,,0.00,1096.7,WeatherDisplay:10.37,2013-07-08 19:19:00,
2013-07-08 14:24:00,94.5,73.0,30.00,SSE,154,2.3,13.8,50,0.00,CLR,,0.00,1082.4,WeatherDisplay:10.37,2013-07-08 19:24:00,
2013-07-08 14:30:00,93.7,73.4,29.99,SE,134,6.7,11.5,52,0.00,CLR,,0.00,1105.5,WeatherDisplay:10.37,2013-07-08 19:30:00,
2013-07-08 14:35:00,94.4,72.3,29.99,SSE,158,4.7,9.2,49,0.00,SCT,,0.00,1100.0,WeatherDisplay:10.37,2013-07-08 19:35:00,
2013-07-08 14:40:00,94.0,72.5,29.99,SE,133,5.6,11.5,50,0.00,SCT,,0.00,898.7,WeatherDisplay:10.37,2013-07-08 19:40:00,
2013-07-08 14:46:00,94.6,73.1,29.99,SSE,151,4.7,16.1,50,0.00,SCT,,0.00,1048.3,WeatherDisplay:10.37,2013-07-08 19:46:00,
2013-07-08 14:51:00,94.7,73.2,29.99,SE,127,4.9,11.5,50,0.00,SCT,,0.00,862.4,WeatherDisplay:10.37,2013-07-08 19:51:00,
2013-07-08 14:57:00,92.6,71.2,29.99,SE,126,2.7,6.9,50,0.00,SCT,,0.00,640.2,WeatherDisplay:10.37,2013-07-08 19:57:00,
2013-07-08 15:02:00,92.5,72.9,29.99,SSE,168,2.8,7.0,53,0.00,SCT,,0.00,926.2,WeatherDisplay:10.37,2013-07-08 20:02:00,
2013-07-08 15:07:00,93.2,71.8,29.98,South,181,4.8,12.7,50,0.00,SCT,,0.00,1061.5,WeatherDisplay:10.37,2013-07-08 20:07:00,
2013-07-08 15:12:00,93.3,72.5,29.98,SSE,160,2.8,5.8,51,0.00,SCT,,0.00,999.9,WeatherDisplay:10.37,2013-07-08 20:12:00,
2013-07-08 15:17:00,94.5,73.0,29.98,SE,143,4.4,8.1,50,0.00,SCT,,0.00,995.5,WeatherDisplay:10.37,2013-07-08 20:17:00,
2013-07-08 15:22:00,94.6,73.1,29.98,SE,143,0.0,1.1,50,0.00,SCT,,0.00,849.2,WeatherDisplay:10.37,2013-07-08 20:22:00,
2013-07-08 15:27:00,94.5,72.4,29.98,SE,133,3.0,10.4,49,0.00,SCT,,0.00,905.3,WeatherDisplay:10.37,2013-07-08 20:27:00,
2013-07-08 15:33:00,94.1,72.6,29.98,SE,131,1.4,5.0,50,0.00,SCT,,0.00,885.5,WeatherDisplay:10.37,2013-07-08 20:33:00,
2013-07-08 15:38:00,94.2,72.1,29.98,SE,124,5.6,11.5,49,0.00,SCT,,0.00,926.2,WeatherDisplay:10.37,2013-07-08 20:38:00,
2013-07-08 15:43:00,94.5,72.4,29.98,SE,129,2.0,5.8,49,0.00,SCT,,0.00,939.4,WeatherDisplay:10.37,2013-07-08 20:43:00,
2013-07-08 15:49:00,95.0,72.2,29.98,SSE,150,3.8,9.2,48,0.00,SCT,,0.00,895.4,WeatherDisplay:10.37,2013-07-08 20:49:00,
2013-07-08 15:54:00,94.6,71.9,29.97,SE,144,4.1,8.1,48,0.00,SCT,,0.00,872.3,WeatherDisplay:10.37,2013-07-08 20:54:00,
2013-07-08 15:59:00,94.6,72.5,29.97,South,175,2.1,5.8,49,0.00,SCT,,0.00,880.0,WeatherDisplay:10.37,2013-07-08 20:59:00,
2013-07-08 16:05:00,94.4,71.7,29.97,SSE,155,2.7,6.0,48,0.00,SCT,,0.00,811.8,WeatherDisplay:10.37,2013-07-08 21:05:00,
2013-07-08 16:11:00,95.3,73.1,29.97,SE,127,3.8,11.5,49,0.00,SCT,,0.00,804.1,WeatherDisplay:10.37,2013-07-08 21:11:00,
2013-07-08 16:16:00,95.1,71.7,29.96,SSE,156,7.2,9.2,47,0.00,CLR,,0.00,783.2,WeatherDisplay:10.37,2013-07-08 21:16:00,
2013-07-08 16:21:00,94.2,71.5,29.96,SE,141,3.0,6.0,48,0.00,CLR,,0.00,602.8,WeatherDisplay:10.37,2013-07-08 21:21:00,
2013-07-08 16:27:00,93.7,71.7,29.96,SSE,148,2.0,8.1,49,0.00,CLR,,0.00,523.6,WeatherDisplay:10.37,2013-07-08 21:27:00,
2013-07-08 16:32:00,94.0,72.5,29.96,ESE,122,4.5,9.2,50,0.00,CLR,,0.00,433.4,WeatherDisplay:10.37,2013-07-08 21:32:00,
2013-07-08 16:37:00,93.5,71.5,29.96,SSE,153,7.7,11.5,49,0.00,CLR,,0.00,563.2,WeatherDisplay:10.37,2013-07-08 21:37:00,
2013-07-08 16:42:00,93.4,72.0,29.96,SSE,149,4.8,9.2,50,0.00,CLR,,0.00,628.1,WeatherDisplay:10.37,2013-07-08 21:42:00,
2013-07-08 16:47:00,93.5,70.9,29.96,South,187,3.4,9.0,48,0.00,CLR,,0.00,732.6,WeatherDisplay:10.37,2013-07-08 21:47:00,
2013-07-08 16:53:00,95.3,72.5,29.96,ESE,118,1.9,6.9,48,0.00,CLR,,0.00,734.8,WeatherDisplay:10.37,2013-07-08 21:53:00,
2013-07-08 17:00:00,95.5,73.3,29.96,SE,146,5.0,11.5,49,0.00,CLR,,0.00,624.8,WeatherDisplay:10.37,2013-07-08 22:00:00,
2013-07-08 17:05:00,95.1,72.3,29.95,East,81,3.0,9.0,48,0.00,CLR,,0.00,694.1,WeatherDisplay:10.37,2013-07-08 22:05:00,
2013-07-08 17:11:00,94.8,72.0,29.95,SSE,168,2.1,11.5,48,0.00,CLR,,0.00,671.0,WeatherDisplay:10.37,2013-07-08 22:11:00,
2013-07-08 17:16:00,95.6,70.9,29.95,SE,124,4.0,11.5,45,0.00,CLR,,0.00,647.9,WeatherDisplay:10.37,2013-07-08 22:16:00,
2013-07-08 17:21:00,94.9,70.9,29.95,SSE,159,3.5,6.9,46,0.00,CLR,,0.00,632.5,WeatherDisplay:10.37,2013-07-08 22:21:00,
2013-07-08 17:27:00,94.8,71.4,29.95,SSE,155,0.9,2.0,47,0.00,CLR,,0.00,619.3,WeatherDisplay:10.37,2013-07-08 22:27:00,
2013-07-08 17:32:00,95.1,72.3,29.95,ESE,119,4.8,11.5,48,0.00,CLR,,0.00,594.0,WeatherDisplay:10.37,2013-07-08 22:32:00,
2013-07-08 17:37:00,95.1,72.3,29.95,SE,143,1.0,5.0,48,0.00,CLR,,0.00,574.2,WeatherDisplay:10.37,2013-07-08 22:37:00,
2013-07-08 17:42:00,95.0,72.2,29.95,SE,138,2.7,8.1,48,0.00,CLR,,0.00,556.6,WeatherDisplay:10.37,2013-07-08 22:42:00,
2013-07-08 17:47:00,94.4,71.7,29.95,SE,129,1.6,6.0,48,0.00,CLR,,0.00,69.3,WeatherDisplay:10.37,2013-07-08 22:47:00,
2013-07-08 17:53:00,93.3,71.9,29.95,SE,145,1.8,8.1,50,0.00,CLR,,0.00,507.1,WeatherDisplay:10.37,2013-07-08 22:53:00,
2013-07-08 17:58:00,94.5,72.4,29.94,SE,131,4.6,8.0,49,0.00,CLR,,0.00,490.6,WeatherDisplay:10.37,2013-07-08 22:58:00,
2013-07-08 18:03:00,94.4,71.1,29.94,SE,127,3.1,8.1,47,0.00,CLR,,0.00,469.7,WeatherDisplay:10.37,2013-07-08 23:03:00,
2013-07-08 18:10:00,94.4,72.3,29.94,SE,124,4.7,9.2,49,0.00,CLR,,0.00,451.0,WeatherDisplay:10.37,2013-07-08 23:10:00,
2013-07-08 18:15:00,93.8,71.7,29.94,SE,132,4.1,12.7,49,0.00,CLR,,0.00,429.0,WeatherDisplay:10.37,2013-07-08 23:15:00,
2013-07-08 18:20:00,93.7,71.7,29.94,SE,141,5.7,13.8,49,0.00,CLR,,0.00,410.3,WeatherDisplay:10.37,2013-07-08 23:20:00,
2013-07-08 18:26:00,93.3,72.5,29.94,SE,145,0.9,6.9,51,0.00,CLR,,0.00,388.3,WeatherDisplay:10.37,2013-07-08 23:26:00,
2013-07-08 18:31:00,93.6,72.2,29.94,SSE,153,4.6,11.5,50,0.00,CLR,,0.00,344.3,WeatherDisplay:10.37,2013-07-08 23:31:00,
2013-07-08 18:37:00,93.5,71.5,29.94,SSE,149,4.7,7.0,49,0.00,CLR,,0.00,344.3,WeatherDisplay:10.37,2013-07-08 23:37:00,
2013-07-08 18:42:00,93.4,72.6,29.94,SE,143,2.6,6.9,51,0.00,CLR,,0.00,328.9,WeatherDisplay:10.37,2013-07-08 23:42:00,
2013-07-08 18:48:00,93.4,73.1,29.93,ESE,121,2.1,7.0,52,0.00,CLR,,0.00,311.3,WeatherDisplay:10.37,2013-07-08 23:48:00,
2013-07-08 18:53:00,92.7,73.1,29.93,ESE,112,1.4,4.0,53,0.00,CLR,,0.00,290.4,WeatherDisplay:10.37,2013-07-08 23:53:00,
2013-07-08 18:58:00,92.6,73.0,29.93,ESE,112,2.2,5.8,53,0.00,CLR,,0.00,272.8,WeatherDisplay:10.37,2013-07-08 23:58:00,
2013-07-08 19:04:00,92.3,72.7,29.93,ESE,122,0.5,6.9,53,0.00,CLR,,0.00,253.0,WeatherDisplay:10.37,2013-07-09 00:04:00,
2013-07-08 19:09:00,91.9,72.3,29.93,SE,139,2.9,13.8,53,0.00,CLR,,0.00,235.4,WeatherDisplay:10.37,2013-07-09 00:09:00,
2013-07-08 19:14:00,92.0,72.4,29.94,SE,124,0.9,4.6,53,0.00,CLR,,0.00,216.7,WeatherDisplay:10.37,2013-07-09 00:14:00,
2013-07-08 19:19:00,91.6,72.0,29.94,SE,141,5.3,9.0,53,0.00,CLR,,0.00,195.8,WeatherDisplay:10.37,2013-07-09 00:19:00,
2013-07-08 19:25:00,91.2,71.7,29.93,ESE,120,1.4,5.8,53,0.00,CLR,,0.00,176.0,WeatherDisplay:10.37,2013-07-09 00:25:00,
2013-07-08 19:31:00,90.8,72.4,29.94,SE,133,3.1,5.0,55,0.00,CLR,,0.00,71.5,WeatherDisplay:10.37,2013-07-09 00:31:00,
2013-07-08 19:36:00,90.3,72.5,29.93,SE,127,3.1,5.0,56,0.00,CLR,,0.00,42.9,WeatherDisplay:10.37,2013-07-09 00:36:00,
2013-07-08 19:41:00,89.8,72.0,29.93,SE,125,1.1,5.0,56,0.00,CLR,,0.00,38.5,WeatherDisplay:10.37,2013-07-09 00:41:00,
2013-07-08 19:46:00,89.6,72.3,29.93,ESE,122,0.6,6.0,57,0.00,CLR,,0.00,38.5,WeatherDisplay:10.37,2013-07-09 00:46:00,
2013-07-08 19:52:00,89.4,72.2,29.94,ESE,119,4.6,10.4,57,0.00,CLR,,0.00,36.3,WeatherDisplay:10.37,2013-07-09 00:52:00,
2013-07-08 19:58:00,89.0,71.8,29.94,ESE,114,1.2,4.6,57,0.00,CLR,,0.00,28.6,WeatherDisplay:10.37,2013-07-09 00:58:00,
2013-07-08 20:04:00,88.3,72.2,29.94,ESE,111,0.9,7.0,59,0.00,CLR,,0.00,25.3,WeatherDisplay:10.37,2013-07-09 01:04:00,
2013-07-08 20:09:00,87.9,72.3,29.94,ESE,111,0.5,4.0,60,0.00,CLR,,0.00,23.1,WeatherDisplay:10.37,2013-07-09 01:09:00,
2013-07-08 20:14:00,87.6,72.0,29.94,ESE,111,2.1,5.0,60,0.00,CLR,,0.00,19.8,WeatherDisplay:10.37,2013-07-09 01:14:00,
2013-07-08 20:19:00,87.2,72.1,29.94,ESE,112,1.0,4.0,61,0.00,CLR,,0.00,17.6,WeatherDisplay:10.37,2013-07-09 01:19:00,
2013-07-08 20:24:00,87.0,71.9,29.94,ESE,112,1.3,5.0,61,0.00,CLR,,0.00,13.2,WeatherDisplay:10.37,2013-07-09 01:24:00,
2013-07-08 20:29:00,86.7,71.6,29.94,ESE,112,0.5,3.5,61,0.00,CLR,,0.00,12.1,WeatherDisplay:10.37,2013-07-09 01:29:00,
2013-07-08 20:34:00,86.4,71.8,29.94,ESE,112,1.5,5.0,62,0.00,CLR,,0.00,7.7,WeatherDisplay:10.37,2013-07-09 01:34:00,
2013-07-08 20:39:00,86.0,71.9,29.94,ESE,112,0.2,2.3,63,0.00,CLR,,0.00,5.5,WeatherDisplay:10.37,2013-07-09 01:39:00,
2013-07-08 20:45:00,85.9,71.8,29.94,ESE,112,0.4,4.0,63,0.00,CLR,,0.00,0.0,WeatherDisplay:10.37,2013-07-09 01:45:00,
2013-07-08 20:50:00,85.6,71.6,29.94,ESE,112,0.1,2.3,63,0.00,CLR,,0.00,0.0,WeatherDisplay:10.37,2013-07-09 01:50:00,
2013-07-08 20:55:00,85.2,71.6,29.94,ESE,112,0.2,4.6,64,0.00,CLR,,0.00,0.0,WeatherDisplay:10.37,2013-07-09 01:55:00,
2013-07-08 21:01:00,84.6,71.1,29.94,ESE,112,0.2,3.5,64,0.00,CLR,,0.00,0.0,WeatherDisplay:10.37,2013-07-09 02:01:00,
2013-07-08 21:06:00,84.6,71.1,29.95,ESE,112,0.7,4.6,64,0.00,CLR,,0.00,0.0,WeatherDisplay:10.37,2013-07-09 02:06:00,
2013-07-08 21:11:00,84.2,71.2,29.95,ESE,112,0.0,1.1,65,0.00,CLR,,0.00,0.0,WeatherDisplay:10.37,2013-07-09 02:11:00,
2013-07-08 21:16:00,83.8,70.8,29.97,ESE,112,0.0,0.0,65,0.00,CLR,,0.00,0.0,WeatherDisplay:10.37,2013-07-09 02:16:00,
2013-07-08 21:22:00,83.4,70.8,29.97,ESE,112,0.1,2.3,66,0.00,CLR,,0.00,0.0,WeatherDisplay:10.37,2013-07-09 02:22:00,
2013-07-08 21:28:00,83.0,71.3,29.98,ESE,112,0.1,2.0,68,0.00,CLR,,0.00,0.0,WeatherDisplay:10.37,2013-07-09 02:28:00,
2013-07-08 21:33:00,83.4,71.3,29.98,ESE,112,0.5,2.3,67,0.00,CLR,,0.00,0.0,WeatherDisplay:10.37,2013-07-09 02:33:00,
2013-07-08 21:39:00,83.4,71.3,29.98,ESE,112,0.3,2.3,67,0.00,CLR,,0.00,0.0,WeatherDisplay:10.37,2013-07-09 02:39:00,
2013-07-08 21:44:00,83.2,71.1,29.98,ESE,112,0.2,4.6,67,0.00,CLR,,0.00,0.0,WeatherDisplay:10.37,2013-07-09 02:44:00,
2013-07-08 21:49:00,83.1,70.6,29.98,ESE,112,0.9,7.0,66,0.00,CLR,,0.00,0.0,WeatherDisplay:10.37,2013-07-09 02:49:00,
2013-07-08 21:55:00,83.1,71.0,29.99,ESE,112,1.4,5.0,67,0.00,CLR,,0.00,0.0,WeatherDisplay:10.37,2013-07-09 02:55:00,
2013-07-08 22:01:00,83.2,70.7,29.99,ESE,113,2.2,5.0,66,0.00,CLR,,0.00,0.0,WeatherDisplay:10.37,2013-07-09 03:01:00,
2013-07-08 22:08:00,83.3,70.8,29.99,ESE,113,2.2,6.0,66,0.00,CLR,,0.00,0.0,WeatherDisplay:10.37,2013-07-09 03:08:00,
2013-07-08 22:13:00,83.4,70.8,30.00,ESE,113,0.8,4.6,66,0.00,CLR,,0.00,0.0,WeatherDisplay:10.37,2013-07-09 03:13:00,
2013-07-08 22:18:00,83.4,70.4,30.00,ESE,113,0.9,3.5,65,0.00,CLR,,0.00,0.0,WeatherDisplay:10.37,2013-07-09 03:18:00,
2013-07-08 22:25:00,83.2,70.7,30.00,ESE,113,0.6,4.0,66,0.00,CLR,,0.00,0.0,WeatherDisplay:10.37,2013-07-09 03:25:00,
2013-07-08 22:31:00,83.4,70.8,30.00,ESE,114,3.5,5.8,66,0.00,CLR,,0.00,0.0,WeatherDisplay:10.37,2013-07-09 03:31:00,
2013-07-08 22:36:00,83.5,70.9,30.01,ESE,114,0.8,4.6,66,0.00,CLR,,0.00,0.0,WeatherDisplay:10.37,2013-07-09 03:36:00,
2013-07-08 22:41:00,83.4,70.8,30.01,ESE,114,0.9,6.9,66,0.00,CLR,,0.00,0.0,WeatherDisplay:10.37,2013-07-09 03:41:00,
2013-07-08 22:47:00,83.2,71.1,30.01,ESE,114,0.9,6.0,67,0.00,CLR,,0.00,0.0,WeatherDisplay:10.37,2013-07-09 03:47:00,
2013-07-08 22:53:00,82.9,71.3,30.01,ESE,114,1.9,4.6,68,0.00,CLR,,0.00,0.0,WeatherDisplay:10.37,2013-07-09 03:53:00,
2013-07-08 22:58:00,82.7,71.1,30.01,ESE,114,0.8,2.3,68,0.00,CLR,,0.00,0.0,WeatherDisplay:10.37,2013-07-09 03:58:00,
2013-07-08 23:01:00,82.7,71.5,30.01,ESE,114,0.4,2.3,69,0.00,CLR,,0.00,0.0,WeatherDisplay:10.37,2013-07-09 04:01:00,
2013-07-08 23:02:00,82.6,71.4,30.01,ESE,114,0.6,2.3,69,0.00,CLR,,0.00,0.0,WeatherDisplay:10.37,2013-07-09 04:02:00,
2013-07-08 23:07:00,82.5,71.3,30.01,ESE,114,0.5,1.1,69,0.00,CLR,,0.00,0.0,WeatherDisplay:10.37,2013-07-09 04:07:00,
2013-07-08 23:12:00,82.3,71.5,30.01,ESE,114,0.2,4.0,70,0.00,CLR,,0.00,0.0,WeatherDisplay:10.37,2013-07-09 04:12:00,
2013-07-08 23:17:00,82.2,71.4,30.01,ESE,115,2.7,6.9,70,0.00,CLR,,0.00,0.0,WeatherDisplay:10.37,2013-07-09 04:17:00,
2013-07-08 23:22:00,82.3,71.5,30.01,SE,124,1.0,4.6,70,0.00,CLR,,0.00,0.0,WeatherDisplay:10.37,2013-07-09 04:22:00,
2013-07-08 23:27:00,82.5,71.3,30.01,SSE,161,3.6,7.0,69,0.00,CLR,,0.00,0.0,WeatherDisplay:10.37,2013-07-09 04:27:00,
2013-07-08 23:32:00,82.4,70.8,30.01,SSE,162,3.2,5.0,68,0.00,CLR,,0.00,0.0,WeatherDisplay:10.37,2013-07-09 04:32:00,
2013-07-08 23:37:00,82.3,70.7,30.01,South,187,2.1,6.9,68,0.00,CLR,,0.00,0.0,WeatherDisplay:10.37,2013-07-09 04:37:00,
2013-07-08 23:42:00,82.4,70.8,30.02,SSW,197,2.0,4.6,68,0.00,CLR,,0.00,0.0,WeatherDisplay:10.37,2013-07-09 04:42:00,
2013-07-08 23:47:00,82.2,70.6,30.02,SSW,194,1.3,3.5,68,0.00,CLR,,0.00,0.0,WeatherDisplay:10.37,2013-07-09 04:47:00,
2013-07-08 23:52:00,82.1,70.5,30.02,South,174,1.0,2.0,68,0.00,CLR,,0.00,0.0,WeatherDisplay:10.37,2013-07-09 04:52:00,
2013-07-08 23:57:00,81.8,70.6,30.02,South,174,0.9,4.6,69,0.00,CLR,,0.00,0.0,WeatherDisplay:10.37,2013-07-09 04:57:00,